Emporia, Virginia, United States (23847)
Lat: 36.69N, Lon: 77.54W
Wx Zone: VAZ087
Local Info
Past Weather Observations for Wednesday, April 27, 2016

NOTE: This archive is for the closest National Weather Service station to Emporia. Information may differ from the station used for current weather conditions.

Click here for Long-term Archive

Time Weather Temperature Dewpoint Humidity Pressure Winds Precip Visibility
23:55
Overcast
Fog And Mist
55°F / 13°C 55°F / 13°C 100% 29.92 in
(1013 mb)
NE 3.5 mph
(NE 6 kph)
- 5SM
23:35
Overcast
Thunder Storms
55°F / 13°C 55°F / 13°C 100% 29.95 in
(1014 mb)
ENE 4.6 mph
(ENE 7 kph)
-
23:15
Overcast
Thunder Storms
55°F / 13°C 55°F / 13°C 100% 29.95 in
(1014 mb)
E 4.6 mph
(E 7 kph)
-
22:55
Overcast
Thunder Storms
57°F / 14°C 55°F / 13°C 94% 29.95 in
(1014 mb)
E 3.5 mph
(E 6 kph)
-
22:35
Overcast
57°F / 14°C 55°F / 13°C 94% 29.92 in
(1013 mb)
E 4.6 mph
(E 7 kph)
-
22:15
Overcast
57°F / 14°C 57°F / 14°C 100% 29.92 in
(1013 mb)
ENE 6.9 mph
(ENE 11 kph)
-
21:55
Overcast
Drizzle
57°F / 14°C 57°F / 14°C 100% 29.89 in
(1012 mb)
NE 8.1 mph
(NE 13 kph)
0.01 in
(0.25 mm)
7SM
21:35
Overcast
Light Snow
59°F / 15°C 57°F / 14°C 94% 29.89 in
(1012 mb)
NE 8.1 mph
(NE 13 kph)
0.01 in
(0.25 mm)
7SM
21:15
Overcast
Drizzle
59°F / 15°C 59°F / 15°C 100% 29.92 in
(1013 mb)
NE 6.9 mph
(NE 11 kph)
- 7SM
20:55
Overcast
Light Rain
61°F / 16°C 61°F / 16°C 100% 29.92 in
(1013 mb)
Calm 0.08 in
(2.03 mm)
5SM
20:35
Overcast
Rain
61°F / 16°C 61°F / 16°C 100% 29.92 in
(1013 mb)
NE 6.9 mph
(NE 11 kph)
0.06 in
(1.52 mm)
4SM
20:15
Overcast
63°F / 17°C 63°F / 17°C 100% 29.92 in
(1013 mb)
NE 5.8 mph
(NE 9 kph)
0.02 in
(0.51 mm)
5SM
19:55
Overcast
Heavy Rain
63°F / 17°C 63°F / 17°C 100% 29.89 in
(1012 mb)
ENE 5.8 mph
(ENE 9 kph)
0.09 in
(2.29 mm)
5SM
19:35
Overcast
Thunder Storms
64°F / 18°C 64°F / 18°C 100% 29.89 in
(1012 mb)
ENE 9.2 mph
(ENE 15 kph)
0.05 in
(1.27 mm)
7SM
19:15
Overcast
64°F / 18°C 64°F / 18°C 100% 29.89 in
(1012 mb)
E 6.9 mph
(E 11 kph)
0.03 in
(0.76 mm)
18:55
Light Rain
64°F / 18°C 64°F / 18°C 100% 29.89 in
(1012 mb)
ENE 3.5 mph
(ENE 6 kph)
0.14 in
(3.56 mm)
18:35
Thunder Storms
64°F / 18°C 64°F / 18°C 100% 29.89 in
(1012 mb)
Calm 0.13 in
(3.30 mm)
18:15
Thunder Storms
64°F / 18°C 64°F / 18°C 100% 29.86 in
(1011 mb)
ENE 5.8 mph
(ENE 9 kph)
0.13 in
(3.30 mm)
17:55
Overcast
Thunder Storms
64°F / 18°C 64°F / 18°C 100% 29.86 in
(1011 mb)
SSE 6.9 mph
(SSE 11 kph)
0.36 in
(9.14 mm)
17:35
Overcast
Thunder Storms
77°F / 25°C 61°F / 16°C 57% 29.83 in
(1010 mb)
S 12.7 mph
(S 20 kph)
-
17:15
Mostly Cloudy
Thunder Storms
81°F / 27°C 63°F / 17°C 54% 29.8 in
(1009 mb)
Calm -
16:55
Clear
81°F / 27°C 61°F / 16°C 51% 29.8 in
(1009 mb)
Calm - 10SM
16:35
Partly Cloudy
82°F / 28°C 59°F / 15°C 45% 29.8 in
(1009 mb)
Calm -
16:15
Partly Cloudy
82°F / 28°C 59°F / 15°C 45% 29.8 in
(1009 mb)
Calm -
15:55
Partly Cloudy
82°F / 28°C 59°F / 15°C 45% 29.8 in
(1009 mb)
S 6.9 mph
(S 11 kph)
-
15:35
Partly Cloudy
81°F / 27°C 59°F / 15°C 48% 29.8 in
(1009 mb)
Calm - 10SM
15:15
Clear
82°F / 28°C 59°F / 15°C 45% 29.8 in
(1009 mb)
S 5.8 mph
(S 9 kph)
- 10SM
14:55
Partly Cloudy
82°F / 28°C 59°F / 15°C 45% 29.8 in
(1009 mb)
SSE 5.8 mph
(SSE 9 kph)
-
14:35
Partly Cloudy
82°F / 28°C 59°F / 15°C 45% 29.8 in
(1009 mb)
SE 3.5 mph
(SE 6 kph)
-
14:15
Partly Cloudy
82°F / 28°C 59°F / 15°C 45% 29.8 in
(1009 mb)
SE 3.5 mph
(SE 6 kph)
-
13:55
Partly Cloudy
82°F / 28°C 59°F / 15°C 45% 29.83 in
(1010 mb)
Calm -
13:35
Mostly Cloudy
81°F / 27°C 59°F / 15°C 48% 29.83 in
(1010 mb)
SE 3.5 mph
(SE 6 kph)
-
13:15
Mostly Cloudy
81°F / 27°C 59°F / 15°C 48% 29.83 in
(1010 mb)
SE 3.5 mph
(SE 6 kph)
-
12:55
Partly Cloudy
81°F / 27°C 61°F / 16°C 51% 29.83 in
(1010 mb)
ESE 5.8 mph
(ESE 9 kph)
-
12:35
Partly Cloudy
79°F / 26°C 59°F / 15°C 51% 29.83 in
(1010 mb)
SSE 3.5 mph
(SSE 6 kph)
-
12:15
Partly Cloudy
79°F / 26°C 59°F / 15°C 51% 29.83 in
(1010 mb)
SE 4.6 mph
(SE 7 kph)
-
11:55
Mostly Cloudy
79°F / 26°C 59°F / 15°C 51% 29.86 in
(1011 mb)
SW 3.5 mph
(SW 6 kph)
-
11:35
Partly Cloudy
79°F / 26°C 59°F / 15°C 51% 29.86 in
(1011 mb)
S 4.6 mph
(S 7 kph)
-
11:15
Partly Cloudy
77°F / 25°C 59°F / 15°C 54% 29.86 in
(1011 mb)
Calm - 10SM
10:55
Partly Cloudy
77°F / 25°C 59°F / 15°C 54% 29.86 in
(1011 mb)
Calm - 10SM
10:35
Clear
77°F / 25°C 59°F / 15°C 54% 29.86 in
(1011 mb)
Calm - 10SM
10:15
Clear
77°F / 25°C 59°F / 15°C 54% 29.86 in
(1011 mb)
Calm -
09:55
Clear
73°F / 23°C 59°F / 15°C 61% 29.86 in
(1011 mb)
SW 5.8 mph
(SW 9 kph)
- 10SM
09:35
Clear
73°F / 23°C 59°F / 15°C 61% 29.89 in
(1012 mb)
SSW 3.5 mph
(SSW 6 kph)
- 10SM
09:15
Clear
73°F / 23°C 61°F / 16°C 65% 29.89 in
(1012 mb)
Calm - 10SM
08:55
Clear
72°F / 22°C 61°F / 16°C 69% 29.89 in
(1012 mb)
Calm - 10SM
08:35
Clear
72°F / 22°C 61°F / 16°C 69% 29.89 in
(1012 mb)
W 5.8 mph
(W 9 kph)
- 10SM
08:15
Clear
70°F / 21°C 61°F / 16°C 73% 29.89 in
(1012 mb)
SSW 5.8 mph
(SSW 9 kph)
- 10SM
07:55
Clear
70°F / 21°C 61°F / 16°C 73% 29.86 in
(1011 mb)
SSW 4.6 mph
(SSW 7 kph)
- 10SM
07:35
Clear
68°F / 20°C 63°F / 17°C 83% 29.86 in
(1011 mb)
SSE 8.1 mph
(SSE 13 kph)
-
07:15
Clear
64°F / 18°C 61°F / 16°C 88% 29.86 in
(1011 mb)
SSE 4.6 mph
(SSE 7 kph)
- 10SM
06:55
Clear
64°F / 18°C 61°F / 16°C 88% 29.86 in
(1011 mb)
SW 4.6 mph
(SW 7 kph)
- 10SM
06:35
Clear
63°F / 17°C 61°F / 16°C 94% 29.86 in
(1011 mb)
Calm - 10SM
06:15
Clear
63°F / 17°C 59°F / 15°C 88% 29.83 in
(1010 mb)
SE 3.5 mph
(SE 6 kph)
- 10SM
05:55
Clear
61°F / 16°C 59°F / 15°C 94% 29.83 in
(1010 mb)
Calm - 10SM
05:35
Clear
61°F / 16°C 59°F / 15°C 94% 29.83 in
(1010 mb)
SE 3.5 mph
(SE 6 kph)
- 10SM
05:15
Clear
61°F / 16°C 59°F / 15°C 94% 29.83 in
(1010 mb)
Calm - 10SM
04:55
Clear
61°F / 16°C 59°F / 15°C 94% 29.83 in
(1010 mb)
Calm - 10SM
04:35
Clear
63°F / 17°C 59°F / 15°C 88% 29.83 in
(1010 mb)
Calm - 10SM
04:15
Clear
63°F / 17°C 59°F / 15°C 88% 29.83 in
(1010 mb)
SSE 3.5 mph
(SSE 6 kph)
- 10SM
03:55
Clear
63°F / 17°C 59°F / 15°C 88% 29.83 in
(1010 mb)
Calm - 10SM
03:35
Clear
63°F / 17°C 59°F / 15°C 88% 29.83 in
(1010 mb)
Calm - 10SM
03:15
Clear
64°F / 18°C 59°F / 15°C 83% 29.83 in
(1010 mb)
Calm - 10SM
02:55
Clear
64°F / 18°C 59°F / 15°C 83% 29.8 in
(1009 mb)
SE 4.6 mph
(SE 7 kph)
- 10SM
02:35
Clear
64°F / 18°C 59°F / 15°C 83% 29.8 in
(1009 mb)
SSE 4.6 mph
(SSE 7 kph)
- 10SM
02:15
Clear
63°F / 17°C 59°F / 15°C 88% 29.8 in
(1009 mb)
Calm - 10SM
01:55
Clear
61°F / 16°C 59°F / 15°C 94% 29.8 in
(1009 mb)
Calm - 10SM
01:35
Partly Cloudy
63°F / 17°C 59°F / 15°C 88% 29.8 in
(1009 mb)
Calm - 10SM
01:15
Partly Cloudy
66°F / 19°C 61°F / 16°C 83% 29.8 in
(1009 mb)
Calm - 10SM
00:55
Partly Cloudy
68°F / 20°C 61°F / 16°C 78% 29.83 in
(1010 mb)
Calm - 10SM
00:35
Partly Cloudy
64°F / 18°C 61°F / 16°C 88% 29.83 in
(1010 mb)
Calm - 10SM
00:15
Partly Cloudy
68°F / 20°C 61°F / 16°C 78% 29.83 in
(1010 mb)
Calm - 10SM
Time Weather Temperature Dewpoint Humidity Pressure Winds Precip Visibility


Weather for websites

WeatherForYou.com, LLC is not responsible for any damages or problems caused by this service. Current weather conditions are obtained from the closest station including government and personal stations which may have varying degrees of accuracy. Weather forecasts are derived from the NOAA NDFD. Like all things, this site belongs to Jesus Christ... He just trusts us to maintain it. If you have any questions or comments email webmaster@weatherforyou.com

Copyright © 2016, WeatherForYou.com LLC. All rights reserved.